EW9394 Weather Reports


time (UTC)temp
C
wind
direction
speed
KPH
gust
KPH
rain 1hr
cm
rain 24hr
cm
rain mn
cm
humidity
%
barometer
mb
20260905032047 31 198 3.2 3.2 0.00 0.00 0.00 59 1014.5
20260905031543 31 201 0.0 0.0 0.00 0.00 0.00 59 1014.6
20260905031043 31 202 0.0 0.0 0.00 0.00 0.00 58 1014.5
20260905030538 31 195 1.6 1.6 0.00 0.00 0.00 58 1014.1
20260905030038 31 197 0.0 1.6 0.00 0.00 0.00 58 1014.3
20260905025533 31 180 1.6 1.6 0.00 0.00 0.00 58 1014.3
20260905025029 31 201 0.0 0.0 0.00 0.00 0.00 58 1014.1
20260905024524 31 207 0.0 0.0 0.00 0.00 0.00 58 1014.0
20260905024019 31 205 0.0 0.0 0.00 0.00 0.00 58 1014.4
20260905023514 31 200 0.0 0.0 0.00 0.00 0.00 58 1014.0
20260905023009 32 196 0.0 0.0 0.00 0.00 0.00 57 1013.9
20260905022503 32 174 1.6 1.6 0.00 0.00 0.00 57 1014.0
20260905021959 32 189 0.0 1.6 0.00 0.00 0.00 56 1013.8
20260905021458 32 207 0.0 1.6 0.00 0.00 0.00 56 1013.7
20260905020954 32 196 1.6 1.6 0.00 0.00 0.00 56 1013.5
20260905020454 32 201 0.0 0.0 0.00 0.00 0.00 55 1013.4
20260905015953 32 162 0.0 1.6 0.00 0.00 0.00 55 1013.4
20260905015452 32 200 1.6 3.2 0.00 0.00 0.00 55 1013.2
20260905014951 32 203 1.6 1.6 0.00 0.00 0.00 54 1013.1
20260905014446 32 200 0.0 1.6 0.00 0.00 0.00 54 1013.1
20260905013942 32 182 0.0 1.6 0.00 0.00 0.00 54 1013.1
20260905013439 32 196 0.0 0.0 0.00 0.00 0.00 54 1013.1
20260905012933 32 211 3.2 4.8 0.00 0.00 0.00 54 1013.2
20260905012428 33 185 3.2 4.8 0.00 0.00 0.00 54 1012.9
20260905011925 33 197 1.6 1.6 0.00 0.00 0.00 54 1013.1
20260905011420 33 195 1.6 1.6 0.00 0.00 0.00 53 1012.9
20260905010916 33 159 1.6 3.2 0.00 0.00 0.00 52 1012.9
20260905010411 33 204 3.2 4.8 0.00 0.00 0.00 52 1012.9
20260905005907 33 144 3.2 4.8 0.00 0.00 0.00 51 1012.9
20260905005403 33 113 4.8 8.0 0.00 0.00 0.00 50 1012.6
20260905004857 33 170 1.6 1.6 0.00 0.00 0.00 50 1012.8
20260905004352 33 174 1.6 3.2 0.00 0.00 0.00 50 1012.7
20260905003847 34 204 4.8 4.8 0.00 0.00 0.00 50 1012.8
20260905003343 34 189 1.6 1.6 0.00 0.00 0.00 50 1012.6
20260905002838 34 114 3.2 3.2 0.00 0.00 0.00 49 1012.5
20260905002338 34 116 3.2 3.2 0.00 0.00 0.00 49 1012.6
20260905001833 34 141 4.8 4.8 0.00 0.00 0.00 49 1012.4
20260905001333 35 146 4.8 4.8 0.00 0.00 0.00 48 1012.5
20260905000828 35 146 3.2 4.8 0.00 0.00 0.00 48 1012.3
20260905000325 35 105 1.6 3.2 0.00 0.00 0.00 48 1012.5
20260904235819 35 188 1.6 1.6 0.00 0.00 0.00 48 1012.4
20260904235314 35 164 1.6 1.6 0.00 0.00 0.00 48 1012.6
20260904234808 35 181 3.2 4.8 0.00 0.00 0.00 48 1012.6
20260904234303 35 180 1.6 3.2 0.00 0.00 0.00 47 1012.3
20260904233759 35 94 4.8 8.0 0.00 0.00 0.00 47 1012.4
20260904233256 35 100 1.6 3.2 0.00 0.00 0.00 47 1012.4
20260904232752 35 205 1.6 3.2 0.00 0.00 0.00 48 1012.4
20260904232248 35 146 1.6 1.6 0.00 0.00 0.00 48 1012.2
20260904231743 35 153 3.2 3.2 0.00 0.00 0.00 48 1012.4
20260904231238 36 182 1.6 1.6 0.00 0.00 0.00 47 1012.3
20260904230739 36 211 1.6 3.2 0.00 0.00 0.00 47 1012.4
20260904230233 36 195 1.6 3.2 0.00 0.00 0.00 47 1012.3
20260904225733 36 118 0.0 1.6 0.00 0.00 0.00 47 1012.4
20260904225226 36 200 3.2 3.2 0.00 0.00 0.00 47 1012.5
20260904224725 36 115 3.2 4.8 0.00 0.00 0.00 47 1012.5
20260904224221 36 136 4.8 4.8 0.00 0.00 0.00 48 1012.7
20260904223720 35 154 4.8 4.8 0.00 0.00 0.00 49 1012.6
20260904223215 35 203 1.6 1.6 0.00 0.00 0.00 49 1012.5
20260904222711 35 109 1.6 3.2 0.00 0.00 0.00 49 1012.6
20260904222207 35 110 4.8 8.0 0.00 0.00 0.00 49 1012.6
20260904221706 36 160 3.2 4.8 0.00 0.00 0.00 48 1012.6
20260904221201 36 161 4.8 8.0 0.00 0.00 0.00 47 1012.6
20260904220655 36 106 1.6 4.8 0.00 0.00 0.00 49 1012.5
20260904220151 36 158 1.6 3.2 0.00 0.00 0.00 48 1012.6
20260904215650 37 84 9.7 17.7 0.00 0.00 0.00 46 1012.8
20260904215146 36 164 3.2 3.2 0.00 0.00 0.00 48 1012.6
20260904214641 36 49 1.6 1.6 0.00 0.00 0.00 48 1012.9
20260904214137 36 123 3.2 3.2 0.00 0.00 0.00 47 1012.7
20260904213635 36 150 0.0 1.6 0.00 0.00 0.00 48 1012.9
20260904213132 37 90 4.8 8.0 0.00 0.00 0.00 47 1012.9
20260904212632 37 148 1.6 3.2 0.00 0.00 0.00 46 1012.8
20260904212127 36 187 1.6 3.2 0.00 0.00 0.00 45 1012.9
20260904211626 36 66 4.8 9.7 0.00 0.00 0.00 45 1013.0
20260904211122 37 125 1.6 3.2 0.00 0.00 0.00 44 1013.0
20260904210621 37 152 3.2 3.2 0.00 0.00 0.00 45 1013.0
20260904210117 36 218 3.2 3.2 0.00 0.00 0.00 45 1013.1
20260904205613 36 164 1.6 3.2 0.00 0.00 0.00 46 1013.1
20260904205109 36 214 3.2 4.8 0.00 0.00 0.00 48 1013.1
20260904204604 36 162 6.4 9.7 0.00 0.00 0.00 47 1013.2
20260904204101 36 125 6.4 8.0 0.00 0.00 0.00 45 1013.3
20260904203556 36 193 9.7 11.3 0.00 0.00 0.00 47 1013.3
20260904203053 36 198 3.2 3.2 0.00 0.00 0.00 47 1013.6
20260904202548 37 52 0.0 1.6 0.00 0.00 0.00 45 1013.4
20260904202044 36 92 3.2 4.8 0.00 0.00 0.00 46 1013.6
20260904201539 37 123 4.8 4.8 0.00 0.00 0.00 46 1013.5
20260904201034 36 123 4.8 4.8 0.00 0.00 0.00 46 1013.9
20260904200532 37 169 6.4 9.7 0.00 0.00 0.00 46 1013.8
20260904200028 36 156 3.2 4.8 0.00 0.00 0.00 47 1013.7
20260904195526 37 126 4.8 9.7 0.00 0.00 0.00 46 1013.9
20260904195026 37 201 4.8 4.8 0.00 0.00 0.00 46 1013.7
20260904194521 36 209 3.2 4.8 0.00 0.00 0.00 48 1013.7
20260904194015 36 150 1.6 3.2 0.00 0.00 0.00 47 1014.3
20260904193510 37 125 4.8 8.0 0.00 0.00 0.00 47 1014.5
20260904193007 36 135 1.6 1.6 0.00 0.00 0.00 47 1014.3
20260904192506 36 193 6.4 9.7 0.00 0.00 0.00 48 1014.4
20260904192003 36 186 4.8 8.0 0.00 0.00 0.00 48 1014.4
20260904191459 35 204 4.8 9.7 0.00 0.00 0.00 49 1014.3
20260904190955 37 165 8.0 11.3 0.00 0.00 0.00 48 1014.6
20260904190450 36 103 3.2 8.0 0.00 0.00 0.00 49 1014.7
20260904185946 36 141 4.8 4.8 0.00 0.00 0.00 49 1014.8
20260904185442 36 180 4.8 4.8 0.00 0.00 0.00 49 1014.7
20260904184937 36 207 3.2 3.2 0.00 0.00 0.00 47 1014.8
20260904184437 36 217 4.8 8.0 0.00 0.00 0.00 48 1014.8
20260904183932 36 142 1.6 3.2 0.00 0.00 0.00 48 1015.0
20260904183427 36 96 4.8 8.0 0.00 0.00 0.00 49 1015.1
20260904182923 36 207 1.6 1.6 0.00 0.00 0.00 48 1015.1
20260904182418 35 184 8.0 9.7 0.00 0.00 0.00 48 1015.1
20260904181913 35 175 4.8 4.8 0.00 0.00 0.00 48 1015.4
20260904181408 35 162 8.0 9.7 0.00 0.00 0.00 49 1015.3
20260904180903 35 190 6.4 9.7 0.00 0.00 0.00 51 1015.5
20260904180359 35 205 4.8 8.0 0.00 0.00 0.00 51 1015.4
20260904175858 35 97 3.2 3.2 0.00 0.00 0.00 51 1015.6
20260904175357 35 191 4.8 4.8 0.00 0.00 0.00 50 1015.6
20260904174856 35 199 1.6 3.2 0.00 0.00 0.00 52 1015.7
20260904174353 35 149 1.6 3.2 0.00 0.00 0.00 51 1015.8
20260904173848 35 104 4.8 4.8 0.00 0.00 0.00 51 1015.9
20260904173344 35 103 4.8 4.8 0.00 0.00 0.00 51 1015.7
20260904172839 34 194 0.0 1.6 0.00 0.00 0.00 55 1016.1
20260904172338 34 200 6.4 9.7 0.00 0.00 0.00 53 1015.8
20260904171833 34 190 6.4 11.3 0.00 0.00 0.00 56 1016.0
20260904171329 33 128 0.0 0.0 0.00 0.00 0.00 59 1016.1
20260904170825 33 164 11.3 12.9 0.00 0.00 0.00 57 1016.2
20260904170320 33 131 3.2 3.2 0.00 0.00 0.00 58 1016.3
20260904165815 33 213 4.8 4.8 0.00 0.00 0.00 57 1016.2
20260904165314 33 171 6.4 8.0 0.00 0.00 0.00 60 1016.3
20260904164809 33 192 4.8 4.8 0.00 0.00 0.00 61 1016.2
20260904164303 33 217 6.4 9.7 0.00 0.00 0.00 60 1016.3
20260904163759 32 182 3.2 4.8 0.00 0.00 0.00 62 1016.2
20260904163254 32 185 1.6 1.6 0.00 0.00 0.00 62 1016.5
20260904162754 32 205 3.2 4.8 0.00 0.00 0.00 63 1016.5
20260904162249 32 187 0.0 1.6 0.00 0.00 0.00 63 1016.6
20260904161744 32 159 1.6 3.2 0.00 0.00 0.00 64 1016.5
20260904161244 32 194 1.6 3.2 0.00 0.00 0.00 66 1016.3
20260904160740 31 183 4.8 4.8 0.00 0.00 0.00 66 1016.4
20260904160236 31 198 1.6 1.6 0.00 0.00 0.00 65 1016.5
20260904155735 31 178 8.0 9.7 0.00 0.00 0.00 67 1016.2
20260904155234 31 201 6.4 9.7 0.00 0.00 0.00 67 1016.5
20260904154733 31 184 1.6 3.2 0.00 0.00 0.00 69 1016.4
20260904154228 31 164 6.4 9.7 0.00 0.00 0.00 69 1016.3
20260904153724 31 191 6.4 11.3 0.00 0.00 0.00 70 1016.3
20260904153219 30 200 4.8 8.0 0.00 0.00 0.00 71 1016.3
20260904152715 30 157 9.7 12.9 0.00 0.00 0.00 71 1016.2
20260904152210 30 196 4.8 8.0 0.00 0.00 0.00 73 1016.0
20260904151705 30 193 4.8 8.0 0.00 0.00 0.00 74 1016.3
20260904151204 29 146 3.2 3.2 0.00 0.00 0.00 76 1016.1
20260904150700 30 173 9.7 11.3 0.00 0.00 0.00 76 1016.1
20260904150155 30 196 1.6 1.6 0.00 0.00 0.00 77 1016.0
20260904145653 29 166 3.2 4.8 0.00 0.00 0.00 79 1015.9
20260904145148 29 200 3.2 4.8 0.00 0.00 0.00 80 1016.1
20260904144644 28 197 4.8 4.8 0.00 0.00 0.00 83 1016.1
20260904144140 28 187 8.0 14.5 0.00 0.00 0.00 83 1016.2
20260904143636 28 150 3.2 3.2 0.00 0.00 0.00 84 1016.3
20260904143132 28 206 6.4 8.0 0.00 0.00 0.00 84 1016.2
20260904142628 27 162 1.6 3.2 0.00 0.00 0.00 85 1016.3
20260904142124 27 194 6.4 9.7 0.00 0.00 0.00 86 1016.3
20260904141618 27 169 1.6 3.2 0.00 0.00 0.00 88 1016.3
20260904141114 27 191 4.8 4.8 0.00 0.00 0.00 88 1016.1
20260904140610 27 157 8.0 12.9 0.00 0.00 0.00 88 1016.3
20260904140103 27 180 6.4 11.3 0.00 0.00 0.00 88 1016.3
20260904135603 27 202 3.2 3.2 0.00 0.00 0.00 89 1016.3
20260904135059 27 204 4.8 4.8 0.00 0.00 0.00 90 1016.2
20260904134555 26 192 1.6 3.2 0.00 0.00 0.00 91 1016.2
20260904134048 26 172 4.8 8.0 0.00 0.00 0.00 92 1016.0
20260904133543 26 161 3.2 4.8 0.00 0.00 0.00 93 1016.0
20260904133040 26 182 1.6 1.6 0.00 0.00 0.00 94 1015.9
20260904132539 25 176 0.0 1.6 0.00 0.00 0.00 94 1015.9
20260904132039 25 202 4.8 4.8 0.00 0.00 0.00 94 1015.9
20260904131539 25 195 1.6 3.2 0.00 0.00 0.00 95 1015.8
20260904131035 25 193 1.6 3.2 0.00 0.00 0.00 95 1015.9
20260904130534 25 170 1.6 4.8 0.00 0.00 0.00 95 1015.8
20260904130029 25 75 3.2 3.2 0.00 0.00 0.00 95 1015.6
20260904125526 25 188 1.6 1.6 0.00 0.00 0.00 95 1015.6
20260904125020 25 206 3.2 4.8 0.00 0.00 0.00 96 1015.6
20260904124516 25 206 0.0 1.6 0.00 0.00 0.00 96 1015.5
20260904124012 25 204 1.6 1.6 0.00 0.00 0.00 96 1015.5
20260904123511 25 188 3.2 3.2 0.00 0.00 0.00 96 1015.5
20260904123007 25 138 1.6 3.2 0.00 0.00 0.00 96 1015.4
20260904122501 25 192 1.6 3.2 0.00 0.00 0.00 96 1015.7
20260904121955 25 189 3.2 3.2 0.00 0.00 0.00 96 1015.6
20260904121452 24 213 4.8 4.8 0.00 0.00 0.00 95 1015.6
20260904120948 24 195 1.6 1.6 0.00 0.00 0.00 95 1015.5
20260904120443 24 170 1.6 1.6 0.00 0.00 0.00 95 1015.1
20260904115938 24 144 1.6 1.6 0.00 0.00 0.00 95 1015.3
20260904115434 24 189 3.2 3.2 0.00 0.00 0.00 95 1015.4
20260904114933 24 157 3.2 4.8 0.00 0.00 0.00 95 1015.2
20260904114428 24 186 1.6 1.6 0.00 0.00 0.00 94 1015.1
20260904113924 24 200 1.6 3.2 0.00 0.00 0.00 94 1015.3
20260904113423 24 194 1.6 1.6 0.00 0.00 0.00 94 1015.2
20260904112922 24 194 0.0 1.6 0.00 0.00 0.00 94 1015.5
20260904112418 24 208 1.6 1.6 0.00 0.00 0.00 94 1015.2
20260904111913 24 206 1.6 3.2 0.00 0.00 0.00 94 1014.9
20260904111409 24 201 3.2 3.2 0.00 0.00 0.00 93 1015.0
20260904110905 24 212 3.2 4.8 0.00 0.00 0.00 93 1015.0
20260904110403 24 208 1.6 3.2 0.00 0.00 0.00 93 1015.0
20260904105858 24 210 1.6 3.2 0.00 0.00 0.00 93 1015.1
20260904105353 24 206 1.6 1.6 0.00 0.00 0.00 92 1015.1
20260904104848 24 174 1.6 1.6 0.00 0.00 0.00 92 1014.9
20260904104344 24 148 3.2 3.2 0.00 0.00 0.00 91 1014.9
20260904103841 24 182 4.8 4.8 0.00 0.00 0.00 91 1015.0
20260904103341 24 173 1.6 1.6 0.00 0.00 0.00 91 1015.0
20260904102837 24 181 0.0 1.6 0.00 0.00 0.00 90 1014.9
20260904102332 25 142 1.6 1.6 0.00 0.00 0.00 90 1014.9
20260904101828 25 185 0.0 0.0 0.00 0.00 0.00 90 1014.8
20260904101324 25 177 0.0 1.6 0.00 0.00 0.00 89 1014.8
20260904100819 25 162 3.2 3.2 0.00 0.00 0.00 89 1015.0
20260904100315 25 201 1.6 1.6 0.00 0.00 0.00 89 1014.9
20260904095816 25 156 1.6 1.6 0.00 0.00 0.00 89 1014.6
20260904095310 25 171 1.6 3.2 0.00 0.00 0.00 89 1014.8
20260904094806 25 160 1.6 1.6 0.00 0.00 0.00 89 1014.7
20260904094301 25 164 1.6 3.2 0.00 0.00 0.00 89 1014.7
20260904093757 25 184 0.0 0.0 0.00 0.00 0.00 89 1014.7
20260904093257 25 198 0.0 0.0 0.00 0.00 0.00 88 1014.8
20260904092752 25 193 0.0 0.0 0.00 0.00 0.00 88 1014.6
20260904092249 25 199 0.0 0.0 0.00 0.00 0.00 88 1014.7
20260904091744 25 201 0.0 0.0 0.00 0.00 0.00 87 1014.6
20260904091239 25 200 0.0 0.0 0.00 0.00 0.00 87 1014.8
20260904090735 25 181 1.6 1.6 0.00 0.00 0.00 87 1014.8
20260904090231 25 194 0.0 0.0 0.00 0.00 0.00 87 1014.6
20260904085730 25 198 0.0 1.6 0.00 0.00 0.00 87 1014.7
20260904085225 25 200 0.0 0.0 0.00 0.00 0.00 87 1014.8
20260904084720 25 183 0.0 0.0 0.00 0.00 0.00 87 1014.7
20260904084216 25 191 1.6 1.6 0.00 0.00 0.00 86 1014.5
20260904083713 25 178 4.8 4.8 0.00 0.00 0.00 86 1014.8
20260904083209 25 205 0.0 0.0 0.00 0.00 0.00 86 1014.6
20260904082709 25 211 1.6 1.6 0.00 0.00 0.00 86 1014.6
20260904082204 25 160 1.6 3.2 0.00 0.00 0.00 86 1014.6
20260904081659 25 160 1.6 3.2 0.00 0.00 0.00 85 1014.6
20260904081154 25 178 1.6 1.6 0.00 0.00 0.00 85 1014.6
20260904080650 25 221 0.0 1.6 0.00 0.00 0.00 85 1014.4
20260904080146 25 180 1.6 1.6 0.00 0.00 0.00 85 1014.6
20260904075643 25 192 4.8 8.0 0.00 0.00 0.00 84 1014.6
20260904075137 25 169 3.2 3.2 0.00 0.00 0.00 84 1014.6
20260904074636 25 194 0.0 1.6 0.00 0.00 0.00 84 1014.5
20260904074131 26 199 0.0 0.0 0.00 0.00 0.00 84 1014.5
20260904073626 26 190 1.6 3.2 0.00 0.00 0.00 84 1014.5
20260904073122 26 194 0.0 0.0 0.00 0.00 0.00 83 1014.5
20260904072618 26 201 0.0 1.6 0.00 0.00 0.00 83 1014.7
20260904072112 26 168 1.6 1.6 0.00 0.00 0.00 82 1014.6
20260904071603 26 200 0.0 1.6 0.00 0.00 0.00 82 1014.6
20260904071057 26 166 3.2 4.8 0.00 0.00 0.00 82 1014.6
20260904070556 26 156 4.8 8.0 0.00 0.00 0.00 82 1014.6
20260904070052 26 187 3.2 3.2 0.00 0.00 0.00 81 1014.7
20260904065546 26 190 3.2 4.8 0.00 0.00 0.00 81 1014.9
20260904065042 26 180 3.2 4.8 0.00 0.00 0.00 81 1015.0
20260904064538 26 195 0.0 0.0 0.00 0.00 0.00 81 1014.9
20260904064032 26 196 3.2 3.2 0.00 0.00 0.00 80 1015.0
20260904063530 26 192 0.0 0.0 0.00 0.00 0.00 80 1014.9
20260904063029 26 197 3.2 3.2 0.00 0.00 0.00 80 1014.6
20260904062526 26 186 0.0 1.6 0.00 0.00 0.00 80 1014.8
20260904062021 26 175 4.8 4.8 0.00 0.00 0.00 80 1014.7
20260904061517 26 192 3.2 3.2 0.00 0.00 0.00 80 1014.8
20260904061013 26 196 4.8 4.8 0.00 0.00 0.00 79 1014.7
20260904060509 26 194 4.8 8.0 0.00 0.00 0.00 79 1014.8
20260904060005 26 207 3.2 4.8 0.00 0.00 0.00 79 1014.7
20260904055500 26 190 3.2 4.8 0.00 0.00 0.00 79 1014.7
20260904054955 26 172 4.8 4.8 0.00 0.00 0.00 79 1014.7
20260904054451 26 204 6.4 8.0 0.00 0.00 0.00 78 1014.6
20260904053947 26 183 1.6 1.6 0.00 0.00 0.00 78 1014.6
20260904053446 26 198 1.6 1.6 0.00 0.00 0.00 77 1014.8
20260904052942 26 192 0.0 0.0 0.00 0.00 0.00 76 1014.6
20260904052438 26 173 1.6 3.2 0.00 0.00 0.00 76 1014.9
20260904051933 26 168 1.6 1.6 0.00 0.00 0.00 76 1014.6
20260904051430 26 197 1.6 3.2 0.00 0.00 0.00 76 1014.4
20260904050929 26 218 4.8 8.0 0.00 0.00 0.00 75 1014.7
20260904050426 26 180 1.6 3.2 0.00 0.00 0.00 75 1014.6
20260904045926 26 181 1.6 1.6 0.00 0.00 0.00 75 1014.7
20260904045421 26 205 0.0 0.0 0.00 0.00 0.00 75 1014.6
20260904044921 26 138 3.2 3.2 0.00 0.00 0.00 75 1014.7
20260904044417 27 197 6.4 9.7 0.00 0.00 0.00 75 1014.7
20260904043913 27 184 4.8 4.8 0.00 0.00 0.00 76 1014.8
20260904043410 27 198 3.2 4.8 0.00 0.00 0.00 75 1014.6
20260904042904 27 182 1.6 1.6 0.00 0.00 0.00 74 1014.6
20260904042401 27 217 1.6 4.8 0.00 0.00 0.00 74 1014.9
20260904041855 27 184 1.6 1.6 0.00 0.00 0.00 74 1014.6
20260904041352 27 185 3.2 4.8 0.00 0.00 0.00 73 1014.8
20260904040848 27 212 4.8 9.7 0.00 0.00 0.00 73 1014.8
20260904040342 27 188 3.2 3.2 0.00 0.00 0.00 73 1014.9
20260904035839 27 178 3.2 3.2 0.00 0.00 0.00 72 1014.9
20260904035335 27 181 3.2 4.8 0.00 0.00 0.00 72 1014.8
20260904034833 27 183 4.8 8.0 0.00 0.00 0.00 71 1014.7
20260904034329 27 188 3.2 3.2 0.00 0.00 0.00 71 1014.7
20260904033825 27 181 6.4 8.0 0.00 0.00 0.00 71 1014.8
20260904033321 27 177 0.0 1.6 0.00 0.00 0.00 71 1014.7
20260904032817 27 189 4.8 4.8 0.00 0.00 0.00 71 1014.8